Flag for West Bank Weather past 2 weeks in Nablus, West Bank

Now
64 °F

Passing clouds.


Feels Like: 64 °F
Forecast: 54 / 78 °F
Wind: 3 mph from North

Location: Ben Gurion International Airport

Current Time: May 6, 2015 at 7:28:07 AM

Latest Report: May 6, 2015 at 6:20 AM


Visibility: 4 mi

Pressure: 29.83 "Hg

Humidity: 78%

Dew point: 57 °F

Location of NablusLocation

Historic Weather in Nablus — Graph

°F

Nablus temperature yesterday

Maximum temperature yesterday: 73 °F (at 10:20 AM)
Minimum temperature yesterday: 61 °F (at 4:20 AM)
Average temperature yesterday: 68 °F

Past Weeks' High & Low Weather Summary

 TemperatureHumidityPressure
High91 °F (Apr 29, 4:50 PM)88% (Apr 22, 1:20 AM)30.24 "Hg (Apr 22, 1:20 AM)
Low50 °F (Apr 25, 4:20 AM)20% (Apr 27, 3:20 PM)29.80 "Hg (May 6, 3:50 AM)
Average68 °F60%29.97 "Hg
* Reported Apr 21 5:20 AM — May 6 5:50 AM, Nablus, Weather by CustomWeather, © 2015

Note: Actual official high and low records may vary slightly from our data, if they occured in-between our weather recording intervals... More about our weather records

Advertising

Nablus weather history for previous 24 hours

 ConditionsComfort  
Time TempWeatherWind HumidityBarometerVisibility
5:50 AM
Wed, May 6
64 °FPassing clouds.2 mph78%29.80 "HgN/A
5:20 AM64 °FPassing clouds.3 mph78%29.80 "HgN/A
4:50 AM66 °FPassing clouds.3 mph73%29.80 "HgN/A
4:20 AM66 °FPassing clouds.6 mph73%29.80 "HgN/A
3:50 AM66 °FPassing clouds.6 mph73%29.80 "HgN/A
3:20 AM66 °FPassing clouds.6 mph73%29.83 "HgN/A
2:50 AM66 °FPassing clouds.5 mph78%29.83 "HgN/A
2:20 AM66 °FPassing clouds.5 mph78%29.83 "HgN/A
1:50 AM66 °FPassing clouds.1 mph78%29.83 "HgN/A
1:20 AM66 °FPassing clouds.3 mph78%29.83 "HgN/A
12:50 AM66 °FPassing clouds.No wind83%29.86 "HgN/A
12:20 AM66 °FPassing clouds.2 mph83%29.86 "HgN/A
11:50 PM
Tue, May 5
66 °FPassing clouds.3 mph78%29.86 "HgN/A
11:20 PM66 °FPassing clouds.2 mph83%29.86 "HgN/A
10:50 PM66 °FPassing clouds.3 mph83%29.86 "HgN/A
10:20 PM66 °FPassing clouds.5 mph83%29.86 "HgN/A
9:50 PM66 °FPassing clouds.7 mph83%29.86 "HgN/A
9:20 PM68 °FPassing clouds.6 mph78%29.86 "HgN/A
8:50 PM68 °FPassing clouds.6 mph78%29.86 "HgN/A
8:20 PM68 °FPassing clouds.7 mph78%29.83 "HgN/A
7:50 PM68 °FPassing clouds.7 mph73%29.83 "HgN/A
7:20 PM70 °FPassing clouds.8 mph69%29.83 "HgN/A
6:50 PM70 °FPassing clouds.9 mph69%29.83 "HgN/A
6:20 PM70 °FPassing clouds.10 mph69%29.83 "HgN/A
5:50 PM72 °FPassing clouds.12 mph65%29.83 "HgN/A
5:20 PM72 °FPassing clouds.13 mph65%29.83 "HgN/A
4:50 PM72 °FPassing clouds.14 mph65%29.83 "HgN/A
4:20 PM72 °FPassing clouds.14 mph65%29.83 "HgN/A
3:50 PM73 °FPassing clouds.14 mph61%29.83 "HgN/A
3:20 PM73 °FPassing clouds.12 mph61%29.83 "HgN/A
2:50 PM73 °FPassing clouds.14 mph61%29.86 "HgN/A
2:20 PM72 °FPassing clouds.13 mph65%29.86 "HgN/A
1:50 PM73 °FPassing clouds.15 mph61%29.86 "HgN/A
1:20 PM73 °FPassing clouds.14 mph61%29.86 "HgN/A
12:50 PM73 °FPassing clouds.13 mph61%29.86 "HgN/A
12:20 PM73 °FPassing clouds.10 mph61%29.86 "HgN/A
11:50 AM73 °FScattered clouds.8 mph61%29.89 "HgN/A
11:20 AM73 °FScattered clouds.10 mph61%29.89 "HgN/A
10:50 AM73 °FScattered clouds.6 mph57%29.89 "HgN/A
10:20 AM73 °FPassing clouds.5 mph53%29.89 "HgN/A
9:50 AM72 °FScattered clouds.3 mph57%29.89 "HgN/A
9:20 AM70 °FScattered clouds.2 mph64%29.89 "HgN/A
8:50 AM68 °FScattered clouds.1 mph69%29.89 "HgN/A
8:20 AM68 °FPassing clouds.2 mph69%29.89 "HgN/A
7:50 AM64 °FPassing clouds.5 mph73%29.89 "HgN/A
7:20 AM63 °FPassing clouds.5 mph73%29.89 "HgN/A
Weather by CustomWeather, © 2015

See weather overviewHow to use our weather pages